| time (UTC) | temp F | wind direction | speed knots | gust knots | rain 1hr in | rain 24hr in | rain mn in | humidity % | barometer mb |
| 20260504184050 | 75 | 238 | 5.2 | 13.9 | 0.00 | 0.00 | 0.00 | 43 | 1002.0 |
| 20260504182843 | 74 | 228 | 4.3 | 13.0 | 0.00 | 0.00 | 0.00 | 41 | 1002.0 |
| 20260504181842 | 74 | 232 | 4.3 | 12.2 | 0.00 | 0.00 | 0.00 | 40 | 1002.0 |
| 20260504180840 | 74 | 211 | 7.0 | 12.2 | 0.00 | 0.00 | 0.00 | 42 | 1002.4 |
| 20260504175839 | 74 | 223 | 6.1 | 11.3 | 0.00 | 0.00 | 0.00 | 44 | 1002.4 |
| 20260504174837 | 74 | 228 | 5.2 | 11.3 | 0.00 | 0.00 | 0.00 | 43 | 1002.7 |
| 20260504173836 | 73 | 234 | 3.5 | 13.0 | 0.00 | 0.00 | 0.00 | 46 | 1002.7 |
| 20260504172834 | 73 | 222 | 6.1 | 13.0 | 0.00 | 0.00 | 0.00 | 44 | 1003.0 |
| 20260504171833 | 73 | 228 | 4.3 | 12.2 | 0.00 | 0.00 | 0.00 | 45 | 1003.0 |
| 20260504170831 | 73 | 218 | 6.1 | 12.2 | 0.00 | 0.00 | 0.00 | 45 | 1003.0 |
| 20260504150640 | 65 | 235 | 2.6 | 9.6 | 0.00 | 0.00 | 0.00 | 59 | 1004.4 |
| 20260504140631 | 61 | 222 | 2.6 | 7.8 | 0.00 | 0.00 | 0.00 | 66 | 1004.7 |
| 20260504130621 | 57 | 246 | 2.6 | 5.2 | 0.00 | 0.00 | 0.00 | 70 | 1005.4 |
| 20260504110528 | 48 | 210 | 0.0 | 0.0 | 0.00 | 0.00 | 0.00 | 82 | 1005.4 |
| 20260504100519 | 47 | 220 | 0.0 | 0.0 | 0.00 | 0.00 | 0.00 | 82 | 1005.4 |
| 20260504081432 | 48 | 219 | 0.0 | 0.0 | 0.00 | 0.00 | 0.00 | 81 | 1006.1 |
| 20260504080430 | 48 | 220 | 0.0 | 0.0 | 0.00 | 0.00 | 0.00 | 80 | 1006.4 |
| 20260504050300 | 50 | 206 | 4.3 | 7.8 | 0.00 | 0.00 | 0.00 | 74 | 1008.5 |
| 20260504045259 | 49 | 203 | 5.2 | 7.8 | 0.00 | 0.00 | 0.00 | 75 | 1008.5 |
| 20260504044258 | 49 | 212 | 3.5 | 7.8 | 0.00 | 0.00 | 0.00 | 75 | 1008.8 |
| 20260504043257 | 49 | 207 | 4.3 | 7.0 | 0.00 | 0.00 | 0.00 | 75 | 1008.5 |
| 20260504042254 | 50 | 209 | 4.3 | 7.8 | 0.00 | 0.00 | 0.00 | 74 | 1008.8 |
| 20260504041254 | 50 | 211 | 4.3 | 8.7 | 0.00 | 0.00 | 0.00 | 74 | 1009.1 |
| 20260504040150 | 50 | 207 | 4.3 | 8.7 | 0.00 | 0.00 | 0.00 | 73 | 1009.1 |
| 20260504035148 | 50 | 217 | 4.3 | 8.7 | 0.00 | 0.00 | 0.00 | 73 | 1009.1 |
| 20260504034146 | 50 | 214 | 4.3 | 7.0 | 0.00 | 0.00 | 0.00 | 72 | 1009.1 |
| 20260504033145 | 50 | 207 | 4.3 | 7.8 | 0.00 | 0.00 | 0.00 | 72 | 1009.5 |
| 20260504032143 | 50 | 208 | 4.3 | 7.8 | 0.00 | 0.00 | 0.00 | 72 | 1009.5 |
| 20260504031142 | 50 | 206 | 4.3 | 7.8 | 0.00 | 0.00 | 0.00 | 73 | 1009.5 |
| 20260504030109 | 50 | 207 | 4.3 | 7.8 | 0.00 | 0.00 | 0.00 | 74 | 1009.5 |
| 20260504025036 | 50 | 204 | 4.3 | 7.0 | 0.00 | 0.00 | 0.00 | 75 | 1009.8 |
| 20260504024034 | 50 | 207 | 3.5 | 7.0 | 0.00 | 0.00 | 0.00 | 76 | 1009.8 |
| 20260504023001 | 50 | 211 | 3.5 | 6.1 | 0.00 | 0.00 | 0.00 | 76 | 1009.8 |
| 20260504022000 | 50 | 211 | 4.3 | 6.1 | 0.00 | 0.00 | 0.00 | 75 | 1009.8 |
| 20260504020926 | 50 | 202 | 3.5 | 7.0 | 0.00 | 0.00 | 0.00 | 75 | 1010.2 |
| 20260504015852 | 50 | 203 | 3.5 | 7.8 | 0.00 | 0.00 | 0.00 | 75 | 1010.2 |
| 20260504014851 | 50 | 204 | 4.3 | 7.8 | 0.00 | 0.00 | 0.00 | 75 | 1009.8 |
| 20260504013848 | 50 | 205 | 3.5 | 7.0 | 0.00 | 0.00 | 0.00 | 75 | 1010.2 |
| 20260504012845 | 50 | 209 | 3.5 | 7.0 | 0.00 | 0.00 | 0.00 | 74 | 1010.2 |
| 20260504011842 | 50 | 203 | 3.5 | 7.0 | 0.00 | 0.00 | 0.00 | 74 | 1010.2 |
| 20260504010841 | 51 | 206 | 3.5 | 7.0 | 0.00 | 0.00 | 0.00 | 74 | 1010.2 |
| 20260504005839 | 51 | 208 | 2.6 | 5.2 | 0.00 | 0.00 | 0.00 | 74 | 1010.2 |
| 20260504004837 | 51 | 210 | 2.6 | 6.1 | 0.00 | 0.00 | 0.00 | 73 | 1010.2 |
| 20260504003835 | 51 | 213 | 2.6 | 6.1 | 0.00 | 0.00 | 0.00 | 74 | 1010.2 |
| 20260504002834 | 51 | 220 | 2.6 | 5.2 | 0.00 | 0.00 | 0.00 | 73 | 1010.2 |
| 20260504001801 | 52 | 216 | 1.7 | 7.0 | 0.00 | 0.00 | 0.00 | 73 | 1010.2 |
| 20260504000758 | 52 | 215 | 1.7 | 7.0 | 0.00 | 0.00 | 0.00 | 73 | 1010.5 |
| 20260503235757 | 52 | 217 | 0.0 | 0.0 | 0.00 | 0.00 | 0.00 | 72 | 1010.5 |
| 20260503234755 | 52 | 231 | 0.0 | 0.0 | 0.00 | 0.00 | 0.00 | 70 | 1010.5 |
| 20260503233722 | 53 | 212 | 0.0 | 6.1 | 0.00 | 0.00 | 0.00 | 70 | 1010.5 |
| 20260503232720 | 53 | 224 | 0.0 | 7.0 | 0.00 | 0.00 | 0.00 | 67 | 1010.8 |
| 20260503231719 | 53 | 222 | 2.6 | 8.7 | 0.00 | 0.00 | 0.00 | 66 | 1010.8 |
| 20260503230717 | 53 | 241 | 2.6 | 8.7 | 0.00 | 0.00 | 0.00 | 65 | 1011.2 |
| 20260503225612 | 54 | 240 | 2.6 | 11.3 | 0.00 | 0.00 | 0.00 | 65 | 1011.2 |
| 20260503224538 | 54 | 246 | 6.1 | 13.9 | 0.00 | 0.00 | 0.00 | 65 | 1011.2 |
| 20260503223505 | 54 | 250 | 7.0 | 13.9 | 0.00 | 0.00 | 0.00 | 64 | 1011.5 |
| 20260503222504 | 55 | 253 | 7.8 | 14.8 | 0.00 | 0.00 | 0.00 | 62 | 1011.2 |
| 20260503221430 | 56 | 249 | 7.8 | 14.8 | 0.00 | 0.00 | 0.00 | 62 | 1011.5 |
| 20260503220428 | 57 | 251 | 7.8 | 16.5 | 0.00 | 0.00 | 0.00 | 60 | 1011.2 |
| 20260503215427 | 58 | 259 | 6.1 | 16.5 | 0.00 | 0.00 | 0.00 | 57 | 1011.2 |
| 20260503214424 | 59 | 252 | 11.3 | 20.0 | 0.00 | 0.00 | 0.00 | 56 | 1010.8 |
| 20260503213423 | 61 | 244 | 10.4 | 20.0 | 0.00 | 0.00 | 0.00 | 48 | 1010.5 |
| 20260503212418 | 61 | 235 | 7.0 | 14.8 | 0.00 | 0.00 | 0.00 | 46 | 1010.5 |
| 20260503211416 | 62 | 226 | 7.0 | 14.8 | 0.00 | 0.00 | 0.00 | 43 | 1010.5 |
| 20260503210413 | 63 | 242 | 7.8 | 13.9 | 0.00 | 0.00 | 0.00 | 45 | 1010.5 |
| 20260503205339 | 63 | 236 | 6.1 | 15.6 | 0.00 | 0.00 | 0.00 | 43 | 1010.8 |
| 20260503204336 | 63 | 255 | 9.6 | 15.6 | 0.00 | 0.00 | 0.00 | 43 | 1010.8 |
| 20260503203332 | 62 | 243 | 6.1 | 17.4 | 0.00 | 0.00 | 0.00 | 45 | 1010.8 |
| 20260503202329 | 63 | 249 | 7.0 | 17.4 | 0.00 | 0.00 | 0.00 | 43 | 1011.2 |
| 20260503201327 | 62 | 243 | 6.1 | 13.9 | 0.00 | 0.00 | 0.00 | 43 | 1011.2 |
| 20260503200326 | 62 | 248 | 8.7 | 16.5 | 0.00 | 0.00 | 0.00 | 42 | 1011.5 |
| 20260503195252 | 63 | 250 | 7.8 | 16.5 | 0.00 | 0.00 | 0.00 | 41 | 1011.5 |
| 20260503194250 | 63 | 230 | 6.1 | 14.8 | 0.00 | 0.00 | 0.00 | 43 | 1011.5 |
| 20260503193248 | 64 | 243 | 6.1 | 13.9 | 0.00 | 0.00 | 0.00 | 40 | 1011.9 |
| 20260503192242 | 63 | 244 | 6.1 | 15.6 | 0.00 | 0.00 | 0.00 | 42 | 1011.9 |
| 20260503191239 | 63 | 235 | 6.1 | 15.6 | 0.00 | 0.00 | 0.00 | 40 | 1011.9 |
| 20260503190133 | 63 | 240 | 6.1 | 14.8 | 0.00 | 0.00 | 0.00 | 39 | 1011.9 |
| 20260503185059 | 63 | 242 | 7.8 | 15.6 | 0.00 | 0.00 | 0.00 | 40 | 1012.2 |